G8SIB-9 Weather Reports


Display with metric or nautical units.
time (UTC)temp
F
wind
direction
speed
MPH
gust
MPH
rain 1hr
in
rain 24hr
in
rain mn
in
humidity
%
barometer
mb
20260505223640 49 12 7.0 13.0 0.00 0.00 0.00 78 1010.4
20260505222639 49 12 7.0 14.0 0.00 0.00 0.00 77 1010.4
20260505221638 50 12 7.0 14.0 0.00 0.00 0.00 77 1010.4
20260505220637 50 12 7.0 14.0 0.00 0.00 0.00 76 1010.4
20260505215636 50 20 7.0 14.0 0.00 0.00 0.00 76 1010.3
20260505214635 50 20 7.0 14.0 0.00 0.00 0.00 76 1010.3
20260505213635 50 12 6.0 13.0 0.00 0.00 0.00 75 1010.4
20260505212634 50 12 7.0 14.0 0.00 0.00 0.00 74 1010.3
20260505211634 50 16 7.0 14.0 0.00 0.00 0.00 74 1010.3
20260505210633 51 16 7.0 13.0 0.00 0.00 0.00 73 1010.4
20260505205633 51 18 7.0 13.0 0.00 0.00 0.00 73 1010.3
20260505204632 51 18 7.0 13.0 0.00 0.00 0.00 73 1010.3
20260505203631 51 18 6.0 13.0 0.00 0.00 0.00 72 1010.3
20260505202631 52 18 6.0 12.0 0.00 0.00 0.00 71 1010.2
20260505201630 53 18 6.0 12.0 0.00 0.00 0.00 71 1010.0
20260505200629 53 18 6.0 11.0 0.00 0.00 0.00 71 1010.0
20260505195628 53 48 6.0 11.0 0.00 0.00 0.00 73 1009.9
20260505194628 53 48 6.0 11.0 0.00 0.00 0.00 74 1009.8
20260505193627 53 48 6.0 11.0 0.00 0.00 0.00 75 1009.7
20260505192627 54 48 6.0 11.0 0.00 0.00 0.00 77 1009.5
20260505191626 54 48 6.0 11.0 0.00 0.00 0.00 78 1009.5
20260505190625 54 48 6.0 11.0 0.00 0.00 0.00 79 1009.4
20260505185625 53 30 5.0 10.0 0.00 0.00 0.00 79 1009.3
20260505184624 54 30 4.0 8.0 0.00 0.00 0.00 77 1009.3
20260505183624 54 42 5.0 9.0 0.01 0.00 0.00 74 1009.2
20260505182623 54 42 5.0 10.0 0.01 0.00 0.00 73 1009.2
20260505181621 54 56 5.0 10.0 0.00 0.00 0.00 75 1009.3
20260505180621 55 56 6.0 11.0 0.00 0.00 0.00 74 1009.2
20260505175620 56 18 5.0 10.0 0.00 0.00 0.00 68 1009.1
20260505174619 57 18 5.0 10.0 0.00 0.00 0.00 57 1008.9
20260505173619 58 18 5.0 9.0 0.00 0.00 0.00 56 1008.9
20260505172618 58 18 4.0 9.0 0.00 0.00 0.00 54 1008.8
20260505171617 58 18 4.0 9.0 0.00 0.00 0.00 54 1008.8
20260505170616 59 18 4.0 8.0 0.00 0.00 0.00 53 1008.9
20260505165614 59 80 4.0 7.0 0.00 0.00 0.00 52 1008.9
20260505164614 59 80 4.0 7.0 0.00 0.00 0.00 52 1008.8
20260505163613 59 80 3.0 6.0 0.00 0.00 0.00 52 1008.8
20260505162612 59 80 2.0 5.0 0.00 0.00 0.00 53 1008.8
20260505161611 59 80 2.0 5.0 0.00 0.00 0.00 52 1008.8
20260505160610 59 80 2.0 5.0 0.00 0.00 0.00 53 1008.8
20260505152606 61 80 2.0 6.0 0.00 0.00 0.00 51 1008.8
20260505151606 62 80 2.0 6.0 0.00 0.00 0.00 49 1008.8
20260505150605 62 56 6.0 11.0 0.00 0.00 0.00 49 1008.9
20260505140557 63 134 5.0 10.0 0.00 0.00 0.00 44 1008.9
20260505124551 66 40 5.0 12.0 0.00 0.00 0.00 38 1008.9
20260505123551 67 46 6.0 12.0 0.00 0.00 0.00 37 1008.9
20260505122550 66 46 6.0 13.0 0.00 0.00 0.00 38 1008.9
20260505121550 65 46 6.0 13.0 0.00 0.00 0.00 36 1009.0
20260505120549 67 46 6.0 13.0 0.00 0.00 0.00 34 1009.0
20260505115549 67 38 6.0 13.0 0.00 0.00 0.00 36 1009.0
20260505114548 68 38 6.0 13.0 0.00 0.00 0.00 34 1009.1
20260505113548 67 38 6.0 13.0 0.00 0.00 0.00 36 1009.2
20260505112546 67 54 6.0 13.0 0.00 0.00 0.00 35 1009.3
20260505111545 67 54 6.0 13.0 0.00 0.00 0.00 36 1009.4
20260505110544 66 54 6.0 13.0 0.00 0.00 0.00 37 1009.4
20260505101539 61 46 5.0 12.0 0.00 0.00 0.00 45 1009.9
20260505100538 62 42 6.0 13.0 0.00 0.00 0.00 46 1009.9
20260505095537 63 34 6.0 13.0 0.00 0.00 0.00 44 1009.9
20260505094537 63 34 6.0 13.0 0.00 0.00 0.00 45 1010.0
20260505093536 62 34 6.0 13.0 0.00 0.00 0.00 48 1010.1
20260505092535 61 34 6.0 12.0 0.00 0.00 0.00 49 1010.1
20260505091535 62 34 6.0 12.0 0.00 0.00 0.00 48 1010.0
20260505090534 59 34 6.0 12.0 0.00 0.00 0.00 52 1010.1
20260505085533 60 50 5.0 11.0 0.00 0.00 0.00 54 1010.1
20260505084532 58 42 6.0 12.0 0.00 0.00 0.00 58 1010.1
20260505083532 58 42 6.0 12.0 0.00 0.00 0.00 59 1010.2
20260505082531 59 42 6.0 12.0 0.00 0.00 0.00 54 1010.2
20260505081530 59 42 6.0 12.0 0.00 0.00 0.00 54 1010.2
20260505080528 58 42 6.0 12.0 0.00 0.00 0.00 58 1010.3
20260505075528 56 34 6.0 12.0 0.00 0.00 0.00 59 1010.3
20260505074527 55 34 6.0 12.0 0.00 0.00 0.00 61 1010.2
20260505073526 54 34 6.0 12.0 0.00 0.00 0.00 67 1010.2
20260505072526 53 34 6.0 12.0 0.00 0.00 0.00 69 1010.4
20260505071525 54 34 6.0 12.0 0.00 0.00 0.00 67 1010.4
20260505070523 52 34 6.0 12.0 0.00 0.00 0.00 73 1010.5
20260505065522 52 44 6.0 11.0 0.00 0.00 0.00 71 1010.7
20260505064522 51 44 6.0 11.0 0.00 0.00 0.00 72 1010.7
20260505063521 51 44 6.0 11.0 0.00 0.00 0.00 73 1010.7
20260505062520 51 44 5.0 11.0 0.00 0.00 0.00 72 1010.8
20260505061520 50 46 5.0 11.0 0.00 0.00 0.00 75 1010.8
20260505060519 49 46 5.0 10.0 0.00 0.00 0.00 80 1010.9
20260505055519 47 16 5.0 10.0 0.00 0.00 0.00 85 1010.9
20260505054518 46 16 5.0 10.0 0.00 0.00 0.00 85 1010.9
20260505053517 45 16 5.0 9.0 0.00 0.00 0.00 88 1010.9
20260505052516 45 16 4.0 8.0 0.00 0.00 0.00 89 1010.9
20260505051515 45 16 4.0 8.0 0.00 0.00 0.00 89 1010.9
20260505050515 45 16 4.0 8.0 0.00 0.00 0.00 89 1010.8
20260505041511 45 6 3.0 6.0 0.00 0.00 0.00 90 1010.7
20260505040510 46 6 3.0 6.0 0.00 0.00 0.00 89 1010.7
20260505035510 46 42 2.0 5.0 0.00 0.00 0.00 87 1010.9
20260505034510 47 42 2.0 5.0 0.00 0.00 0.00 85 1010.8
20260505033509 47 42 2.0 4.0 0.00 0.00 0.00 86 1010.9
20260505032508 47 40 1.0 3.0 0.00 0.00 0.00 86 1010.9
20260505031507 47 40 1.0 3.0 0.00 0.00 0.00 86 1010.9
20260505030507 48 40 1.0 3.0 0.00 0.00 0.00 86 1010.9
20260505025506 48 36 1.0 4.0 0.00 0.00 0.00 86 1010.9
20260505024505 48 36 1.0 4.0 0.00 0.00 0.00 85 1011.0
20260505023504 48 36 2.0 5.0 0.00 0.00 0.00 85 1011.0
20260505022504 48 64 2.0 5.0 0.00 0.00 0.00 85 1011.1
20260505021503 49 64 2.0 5.0 0.00 0.00 0.00 84 1011.1
20260505020503 49 64 3.0 5.0 0.00 0.00 0.00 84 1011.2
20260505015502 50 74 3.0 6.0 0.00 0.00 0.00 82 1011.2
20260505014501 50 74 3.0 6.0 0.00 0.00 0.00 82 1011.2
20260505013500 50 74 3.0 6.0 0.00 0.00 0.00 81 1011.1
20260505012500 50 74 3.0 6.0 0.00 0.00 0.00 81 1011.3
20260505011459 51 74 3.0 7.0 0.00 0.00 0.00 80 1011.3
20260505010458 51 74 3.0 7.0 0.00 0.00 0.00 80 1011.4
20260505005458 51 74 3.0 7.0 0.00 0.00 0.00 80 1011.4
20260505004457 51 74 3.0 7.0 0.00 0.00 0.00 81 1011.6
20260505003457 51 74 3.0 6.0 0.00 0.00 0.00 81 1011.8
20260505002456 50 70 3.0 6.0 0.00 0.00 0.00 81 1011.9
20260505001455 51 70 3.0 7.0 0.00 0.00 0.00 80 1012.0
20260505000455 51 70 3.0 7.0 0.00 0.00 0.00 80 1011.9
20260504235454 51 58 3.0 7.0 0.00 0.00 0.00 80 1011.8
20260504234454 51 58 4.0 8.0 0.00 0.00 0.00 80 1012.0
20260504233452 51 58 4.0 8.0 0.00 0.00 0.00 80 1012.2
20260504232452 51 62 4.0 9.0 0.00 0.00 0.00 81 1012.2
20260504231451 51 62 5.0 9.0 0.00 0.00 0.00 81 1012.2
20260504230450 51 62 5.0 9.0 0.00 0.00 0.00 81 1012.1
20260504225449 51 56 4.0 8.0 0.00 0.00 0.00 81 1012.1
20260504224449 52 58 4.0 8.0 0.00 0.00 0.00 81 1012.1